P/2017 U3 ( PanSTARRS )

Japanese version
Home page
Updated on November 16, 2017

---------------------------------------------------------------------

* Profile

Discovery Date October 28, 2017
Magnitude 21.7 mag
Discoverer Pan-STARRS 1 telescope (Haleakala)

* Orbital Elements

Epoch 2019 Apr. 27.0 TT = JDT 2458600.5
T 2019 Apr. 20.43499 TT                                 MPCW
q   4.4439311            (2000.0)            P               Q
n   0.08991224     Peri.  297.33509     -0.22426461     -0.97198078
a   4.9346554      Node   165.11126     +0.96260392     -0.23221065
e   0.0994445      Incl.   15.90614     +0.15198382     +0.03649068
P  10.96
From 48 observations 2017 Oct. 1-Nov. 12, mean residual 0".5.

* Magnitudes Graph

        m1 = 11.0 + 5 log d + 10.0 log r

---------------------------------------------------------------------

The orbital elements are published on M.P.E.C. 2017-V48.
The magnitudes graphs are made with Comet for Windows.

---------------------------------------------------------------------

Copyright(C) Seiichi Yoshida (comet@aerith.net). All rights reserved.